CZ-3C DEB, 40171

Orbit data source: Space-Track

CZ-3C DEB, 40171 is space debris originally from a launch on Sun, 31 Oct 2010 UTC launched from the Xichang Space Center, China (XSC). Debris objects in space refer to the collection of defunct objects orbiting the Earth. Examples of debris include non-operational satellites, rocket bodies, and fragments generated from explosions, collisions, or faulty payload assembly.

Not visible in the next 10 days
Identifier
40171, 2010-057Z
Orbit
Active
Country
Flag of CNCN / PRC
Related business
Manufacturer
CALT
Mission
Spacecraft
Bus & Motor
Unknown
Mass
Unknown
Launch date (UTC)
2010-10-31 (15 years ago)
Launch vehicle
Unknown
Launch site
Xichang Space Center, China (XSC)
Object type
Payload
Rocket body
Debris
Shape & HBR
Unknown shape, 0.3 m
Radar Cross Section
Medium (>0.1 m² and <1 m²)

Expand to show TLE details & history
Last TLE update: 1 day ago

TLE from 1 day ago
0 CZ-3C DEB
1 40171U 10057Z   25346.18164099  .00114165  00000-0  15338-1 0  9993
2 40171  21.8648 319.3232 4117359  81.4465 321.9389  7.14987022199403
Epoch: 2025-12-12T04:21Z
TLE epoch observation values (Epoch: 2025-12-12T04:21:33.781Z)
Latitude
-0.00001°
Longitude
172.80549°
Altitude
2,524.551 km
Speed
7.385 km/s
True Right ascension
21h 17m 17s
True Declination
0° 00' 00"
Sunlit
Object was in daylight at epoch
Visualization orbit readout
Latitude
Unknown
Longitude
Unknown
Altitude
Unknown
Speed
Unknown
Apparent Right ascension
Unknown
Apparent Declination
Unknown
Sunlit
N/A
Visualization observer readout
Local Sidereal Time
09:17:37
Azimuth
Unknown
Elevation
Unknown
Doppler factor
Unknown
Orbital elements
Apogee altitude
9,695.395 km
Perigee altitude
319.633 km
Semi-major axis
11,385.651 km
Eccentricity
0.41174
Inclination
21.8648°
RAAN
319.3232°
Arg. of periapsis
81.4465°
True anomaly
278.5944°
Mean anomaly
321.9389°
Eccentric anomaly
301.91411°
Mean motion
1.78651 °/min
Orbital period
201.51 mins
BSTAR
0.015338
Loading maneuver chart data...
Computing Atmospheric mass density...
Loading historical data...
Loading historical data...
Loading historical data...
Loading historical data...
Loading historical data...
Loading historical data...
Loading historical data...

Documentation

Showing up to 5 results
|